User: anonymous   Login
Location: Burla
(50.9568°N, 10.4983°E)
Time: 08:12:01
(UTC+00:00)
Language:

Cosmos 1656 Rocket - Orbit

View from above orbital plane
View from above orbital plane
View from above satellite
View from above satellite

Ground track
Ground track

The orbit is defined by the following mean orbital elements,

1 15772U          26072.44243043 +.00000000 +00000-0 +10268-3 0 00006
2 15772  71.1063  79.7994 0033085 121.9535  41.1642 14.21983557    05
Epoch (UTC): 13 March 2026 10:37:05
Eccentricity: 0.0033085
inclination: 71.1063°
perigee height: 795 km
apogee height: 842 km
right ascension of ascending node: 79.7994°
argument of perigee: 121.9535°
revolutions per day: 14.21983557
mean anomaly at epoch: 41.1642°

The dashed part of the orbit path shows where the satellite is in the earth's shadow,  

DLR